Crown Princess — ZCDM6 — position and weather

sailwx.info

Track history (hours):
 
Tides and Currents Weather Stations Pressure Air Temp Water Temp Dewpoint Dewpoint Depression Visibility Wind Speed Wind Dir Waves Ship Positions

Crown Princess

Last reported at 2018-Dec-11 06:00 UTC. Time now 2018-Dec-11 06:29 UTC.
Position N 17°37' W 062°55'.

Type: Passenger vessel. MMSI: 310500000.

Date/timePositionNaut miles runAvg speedWind from/ knotsBaromVisibWave heightAir tempDewpointWater temp
2018-Dec-11 06:00N 17°37' W 062°55'1016.6
2018-Dec-11 05:26N 17°41' W 063°04'816.7
2018-Dec-11 04:57N 17°45' W 063°12'816.9
2018-Dec-11 04:28N 17°48' W 063°19'1616.8
2018-Dec-11 03:33N 17°54' W 063°35'118.2
2018-Dec-11 03:30N 17°54' W 063°36'1016.9
2018-Dec-11 02:53N 17°57' W 063°46'5616.1
2018-Dec-10 23:24N 18°08' W 064°44'616.6
2018-Dec-10 23:00N 18°11' W 064°50'46812.0
2018-Dec-09 08:00N 22°18' W 071°54'46714.7 090 / 181017.710.8 26.019.927.0
2018-Dec-08 00:11N 26°09' W 079°18'317.8
2018-Dec-08 00:01N 26°09' W 079°22'918.1
2018-Dec-07 23:31N 26°08' W 079°32'917.9
2018-Dec-07 23:01N 26°08' W 079°42'917.9
2018-Dec-07 22:31N 26°07' W 079°52'918.1
2018-Dec-07 22:01N 26°05' W 080°02'5 9.8
2018-Dec-07 21:30N 26°06' W 080°07'0 0.5
2018-Dec-07 20:55N 26°06' W 080°07'0 0.0
2018-Dec-07 20:28N 26°06' W 080°07'0 0.0
2018-Dec-07 19:58N 26°06' W 080°07'0 0.0
2018-Dec-07 19:25N 26°06' W 080°07'0 0.0
2018-Dec-07 18:55N 26°06' W 080°07'0 0.0
2018-Dec-07 18:26N 26°06' W 080°07'0 0.0
2018-Dec-07 17:56N 26°06' W 080°07'0 0.0
2018-Dec-07 17:26N 26°06' W 080°07'0 0.0
2018-Dec-07 16:58N 26°06' W 080°07'0 0.0
2018-Dec-07 16:28N 26°06' W 080°07'0 0.0
2018-Dec-07 15:58N 26°06' W 080°07'0 0.0
2018-Dec-07 15:29N 26°06' W 080°07'0 0.0
2018-Dec-07 14:59N 26°06' W 080°07'0 0.0
2018-Dec-07 14:29N 26°06' W 080°07'0 0.0
2018-Dec-07 13:56N 26°06' W 080°07'0 0.0
2018-Dec-07 13:29N 26°06' W 080°07'0 0.0
2018-Dec-07 12:59N 26°06' W 080°07'0 0.0
2018-Dec-07 12:28N 26°06' W 080°07'0 0.0
2018-Dec-07 11:58N 26°06' W 080°07'0 0.7
2018-Dec-07 11:31N 26°05' W 080°07'4 8.9
2018-Dec-07 11:01N 26°06' W 080°02'713.4
2018-Dec-07 10:30N 26°06' W 079°55'917.5
2018-Dec-07 10:00N 26°07' W 079°45'816.6
2018-Dec-07 09:30N 26°08' W 079°36'816.5
2018-Dec-07 09:00N 26°09' W 079°27'816.9
2018-Dec-07 08:30N 26°10' W 079°17'10418.9
2018-Dec-07 03:00N 25°48' W 077°24'139 7.0 010 / 201024.310.8 22.013.428.1
2018-Dec-06 07:00N 24°36' W 075°12'6215.6 020 / 321017.910.8 24.018.528.0
2018-Dec-06 03:00N 24°06' W 074°12'43221.6 010 / 281017.610.8 26.521.328.7
2018-Dec-05 07:00N 19°54' W 067°54'196 9.8 090 / 131015.210.8 26.021.529.0
2018-Dec-04 11:03N 18°16' W 064°55'113.3
2018-Dec-04 10:59N 18°15' W 064°54'814.9
2018-Dec-04 10:28N 18°10' W 064°48'5315.1
2018-Dec-04 07:00N 17°36' W 064°06'5119.5 080 / 221013.510.8 26.520.529.1
2018-Dec-04 04:23N 16°59' W 063°29'191 9.0
2018-Dec-03 07:09N 14°26' W 061°31'214.7
2018-Dec-03 07:00N 14°24' W 061°30'218 9.1 080 / 301011.610.8 26.019.928.8
2018-Dec-02 07:00N 12°06' W 064°24'25910.8 070 / 251012.210.8 27.021.028.0
2018-Dec-01 07:00N 11°42' W 068°48'   110 / 191011.410.8 26.023.127.0
Track history (hours):
 
Tides and Currents Weather Stations Pressure Air Temp Water Temp Dewpoint Dewpoint Depression Visibility Wind Speed Wind Dir Waves Ship Positions

Crown Princess

Last reported at 2018-Dec-11 06:00 UTC. Time now 2018-Dec-11 06:29 UTC.
Position N 17°37' W 062°55'.

Type: Passenger vessel. MMSI: 310500000.

Date/timePositionNaut miles runAvg speedWind from/ knotsBaromVisibWave heightAir tempDewpointWater temp
2018-Dec-11 06:00N 17°37' W 062°55'1016.6
2018-Dec-11 05:26N 17°41' W 063°04'816.7
2018-Dec-11 04:57N 17°45' W 063°12'816.9
2018-Dec-11 04:28N 17°48' W 063°19'1616.8
2018-Dec-11 03:33N 17°54' W 063°35'118.2
2018-Dec-11 03:30N 17°54' W 063°36'1016.9
2018-Dec-11 02:53N 17°57' W 063°46'5616.1
2018-Dec-10 23:24N 18°08' W 064°44'616.6
2018-Dec-10 23:00N 18°11' W 064°50'46812.0
2018-Dec-09 08:00N 22°18' W 071°54'46714.7 090 / 181017.710.8 26.019.927.0
2018-Dec-08 00:11N 26°09' W 079°18'317.8
2018-Dec-08 00:01N 26°09' W 079°22'918.1
2018-Dec-07 23:31N 26°08' W 079°32'917.9
2018-Dec-07 23:01N 26°08' W 079°42'917.9
2018-Dec-07 22:31N 26°07' W 079°52'918.1
2018-Dec-07 22:01N 26°05' W 080°02'5 9.8
2018-Dec-07 21:30N 26°06' W 080°07'0 0.5
2018-Dec-07 20:55N 26°06' W 080°07'0 0.0
2018-Dec-07 20:28N 26°06' W 080°07'0 0.0
2018-Dec-07 19:58N 26°06' W 080°07'0 0.0
2018-Dec-07 19:25N 26°06' W 080°07'0 0.0
2018-Dec-07 18:55N 26°06' W 080°07'0 0.0
2018-Dec-07 18:26N 26°06' W 080°07'0 0.0
2018-Dec-07 17:56N 26°06' W 080°07'0 0.0
2018-Dec-07 17:26N 26°06' W 080°07'0 0.0
2018-Dec-07 16:58N 26°06' W 080°07'0 0.0
2018-Dec-07 16:28N 26°06' W 080°07'0 0.0
2018-Dec-07 15:58N 26°06' W 080°07'0 0.0
2018-Dec-07 15:29N 26°06' W 080°07'0 0.0
2018-Dec-07 14:59N 26°06' W 080°07'0 0.0
2018-Dec-07 14:29N 26°06' W 080°07'0 0.0
2018-Dec-07 13:56N 26°06' W 080°07'0 0.0
2018-Dec-07 13:29N 26°06' W 080°07'0 0.0
2018-Dec-07 12:59N 26°06' W 080°07'0 0.0
2018-Dec-07 12:28N 26°06' W 080°07'0 0.0
2018-Dec-07 11:58N 26°06' W 080°07'0 0.7
2018-Dec-07 11:31N 26°05' W 080°07'4 8.9
2018-Dec-07 11:01N 26°06' W 080°02'713.4
2018-Dec-07 10:30N 26°06' W 079°55'917.5
2018-Dec-07 10:00N 26°07' W 079°45'816.6
2018-Dec-07 09:30N 26°08' W 079°36'816.5
2018-Dec-07 09:00N 26°09' W 079°27'816.9
2018-Dec-07 08:30N 26°10' W 079°17'10418.9
2018-Dec-07 03:00N 25°48' W 077°24'139 7.0 010 / 201024.310.8 22.013.428.1
2018-Dec-06 07:00N 24°36' W 075°12'6215.6 020 / 321017.910.8 24.018.528.0
2018-Dec-06 03:00N 24°06' W 074°12'43221.6 010 / 281017.610.8 26.521.328.7
2018-Dec-05 07:00N 19°54' W 067°54'196 9.8 090 / 131015.210.8 26.021.529.0
2018-Dec-04 11:03N 18°16' W 064°55'113.3
2018-Dec-04 10:59N 18°15' W 064°54'814.9
2018-Dec-04 10:28N 18°10' W 064°48'5315.1
2018-Dec-04 07:00N 17°36' W 064°06'5119.5 080 / 221013.510.8 26.520.529.1
2018-Dec-04 04:23N 16°59' W 063°29'191 9.0
2018-Dec-03 07:09N 14°26' W 061°31'214.7
2018-Dec-03 07:00N 14°24' W 061°30'218 9.1 080 / 301011.610.8 26.019.928.8
2018-Dec-02 07:00N 12°06' W 064°24'25910.8 070 / 251012.210.8 27.021.028.0
2018-Dec-01 07:00N 11°42' W 068°48'   110 / 191011.410.8 26.023.127.0

Dump ship's entire track history